Tracking 31027 objects as of 19-Jul-2025
HD Live streaming from Space Station
objects crossing your sky now

STARLINK-31615

Track STARLINK-31615 now!
10-day predictions
STARLINK-31615 is classified as:


NORAD ID: 59413
Int'l Code: 2024-064R
Perigee: 489.5 km
Apogee: 490.8 km
Inclination: 43.0 °
Period: 94.3 minutes
Semi major axis: 6861 km
RCS: Unknown
Launch date: April 5, 2024
Source: United States (US)
Launch site: AIR FORCE EASTERN TEST RANGE (AFETR)
Your satellite tracking list
FLOCK 4X 28
Track 1 satellite(s)




NASA's NSSDC Master Catalog

Two Line Element Set (TLE):
1 59413U 24064R   25199.53164928 -.00001211  00000-0 -34482-4 0  9994
2 59413  43.0021 291.6893 0000956 253.8657 106.2089 15.27581258 73491
Source of the keplerian elements: AFSPC